Regional Weather Roundup
Issued by NWS Grand Forks, ND

Home | Current Version | Previous Version | Text Only | Print | Product List | Glossary Off
Versions: 1 2 3 4 5 6 7 8 9 10 11 12 13 14 15 16 17 18 19 20 21 22 23 24 25 26 27 28 29 30 31 32 33 34 35 36 37 38 39 40 41 42 43 44 45 46 47 48 49 50

000
ASUS43 KFGF 242310
RWRFGF
PRAIRIE TO PINES  WEATHER ROUNDUP
NATIONAL WEATHER SERVICE EASTERN NORTH DAKOTA/GRAND FORKS ND
600 PM CDT WED MAY 24 2017

 **SATELLITE DATA USED TO AUGMENT SKY COVER AT AUTOMATED STATIONS**
 *****  WEATHER ACROSS EASTERN NORTH DAKOTA  *****

CITY           SKY/WX    TMP DP  RH WIND       PRES   REMARKS
GRAND FORKS    FAIR      68  42  38 SE22G28   29.60F
GRAND FRKS AFB FAIR      66  41  41 S23       29.60F
DEVILS LAKE    FAIR      64  43  46 S24G32    29.56F
FARGO          FAIR      66  42  41 SE20      29.64F
WAHPETON ARPT  CLOUDY    61  39  44 SE12      29.67F
$$

 ***** WEATHER ACROSS CENTRAL AND WESTERN NORTH DAKOTA  *****

CITY           SKY/WX    TMP DP  RH WIND       PRES   REMARKS
BISMARCK       FAIR      71  41  33 S20G32    29.45F
MINOT          FAIR      73  35  25 SE20G38   29.37F
JAMESTOWN      PTSUNNY   64  42  44 S22G32    29.56F
MINOT AFB      FAIR      71  37  28 S30G37    29.36F
GARRISON         N/A     68  40  35 S28G36    29.39F
WILLISTON      FAIR      76  40  27 S15G22    29.28R
DICKINSON      FAIR      72  35  25 SE30G39   29.32F
HETTINGER      FAIR      72  38  29 SE28G37   29.38F
$$

 *****  OTHER AIRPORT OBSERVATIONS IN OUR AREA  *****

CITY           SKY/WX    TMP DP  RH WIND       PRES   REMARKS
WALHALLA       NOT AVBL
GRAFTON AIRPOR FAIR      68  41  37 S24G32    29.61F
VALLEY CITY AR MOCLDY    61  43  51 SE18      29.61F
CANDO          NOT AVBL
CAVALIER APRT  FAIR      68  39  34 S24G30    29.57F
GWINNER        CLEAR     64  45  48 MISG      29.62F
SHEYENNE NWR     N/A     62  43  50 S13       29.95S
ROLLA          FAIR      64  39  39 S28G37    29.50F
 ***** THE ABOVE OBSERVATIONS ARE NON NWS ARE NOT QUALITY
       CONTROLLED AND MAY MIS-REPORT RAIN FOR SNOW...
$$

  *****  WEATHER ACROSS NORTHERN MINNESOTA  *****

CITY           SKY/WX    TMP DP  RH WIND       PRES   REMARKS
FLAG ISLAND    FAIR      64  39  39 CALM      29.66F
WARROAD        FAIR      66  39  37 SE14G21   29.66F
ROSEAU         FAIR      68  41  37 S17       29.65F
HALLOCK        FAIR      70  36  28 S23       29.60F
THF RVR FALLS  PTSUNNY   65  39  38 SE21G26   29.67S
BAUDETTE       PTSUNNY   69  36  29 SE12G22   29.67F
WASKISH        PTSUNNY   64  39  39 SE10G21   29.69S
CROOKSTON      CLOUDY    68  39  34 S18G24    29.64F
STEPHEN NDAWN    N/A     70  39  32 S20         N/A
GREENBUSH NDAW   N/A     64  37  36 SE16        N/A
$$
  *****  WEATHER ACROSS CENTRAL AND WEST MINNESOTA  *****

CITY           SKY/WX    TMP DP  RH WIND       PRES   REMARKS
FOSSTON        FAIR      66  43  42 SE10G17   29.68F
BEMIDJI        PTSUNNY   64  42  44 SE16G22   29.69F
PARK RAPIDS    LGT RAIN  62  38  40 SE12      29.69F
ELBOW LAKE     CLOUDY    59  44  57 E9        29.69F
WADENA         PTSUNNY   59  41  51 SE12      29.70F
DETROIT LAKES  PTSUNNY   61  41  48 SE9       29.70S
MOORHEAD       PTSUNNY   63  41  45 S15       29.66F
FERGUS FALLS   PTSUNNY   63  43  48 S13       29.66F
MORRIS MN      CLOUDY    59  45  58 SE8       29.68F
STAPLES        PTSUNNY   59  39  47 SE7       29.70F
$$
  *****  WEATHER ELSEWHERE ACROSS MINNESOTA  *****

CITY           SKY/WX    TMP DP  RH WIND       PRES   REMARKS
DULUTH         FAIR      58  43  57 E17       29.74F
INTRNTL FALLS  PTSUNNY   64  36  35 SE8       29.69F
ELY            FAIR      63  32  31 SE16      29.74S
CLOQUET        FAIR      55  41  58 E14G21    29.74F
WHEATON        CLOUDY    61  43  51 SE14      29.69F
BRAINERD       PTSUNNY   59  42  53 E9        29.71F
HIBBING        FAIR      59  39  47 SE15      29.74S
ALEXANDRIA     CLOUDY    57  43  59 SE6       29.71F
SAINT CLOUD    PTSUNNY   60  43  53 SE6       29.70F
MINNEAPOLIS    PTSUNNY   61  44  53 NE9G18    29.69F
$$

  *****  WEATHER ACROSS SOUTH DAKOTA  *****

CITY           SKY/WX    TMP DP  RH WIND       PRES   REMARKS
SIOUX FALLS    PTSUNNY   64  47  53 E7        29.66F
BROOKINGS      CLOUDY    59  46  62 SE12      29.67F
WATERTOWN      CLOUDY    59  44  57 S10       29.66S
HURON          FAIR      65  45  48 S18G26    29.62F
SISSETON         N/A     62  44  51 S10       29.65F
ABERDEEN       FAIR      67  41  38 SE21G26   29.59F
MITCHELL       FAIR      67  45  45 S15G22    29.64F
PIERRE         FAIR      70  41  34 S24       29.50F
MOBRIDGE       FAIR      69  40  34 S22G35    29.47F
RAPID CITY     FAIR      78  48  34 S22G31    29.39F
$$

  *****  SOME WEATHER IN NEARBY STATES *****

CITY           SKY/WX    TMP DP  RH WIND       PRES   REMARKS
GLASGOW MT     FAIR      77  16  10 W29G35    29.27R
GREAT FALLS MT FAIR      61  14  16 W40G52    29.42R
CHEYENNE WY    FAIR      77  36  22 W24G39    29.64F
SCOTTSBLUFF NE FAIR      81  48  31 SE14      29.47F
OMAHA NE       PTSUNNY   66  44  45 N5        29.68F
DES MOINES IA  PTSUNNY   65  50  58 NE8       29.66F
DAVENPORT IA   PTSUNNY   62  52  69 N13       29.62S
CHICAGO IL     CLOUDY    60  50  69 N21       29.55S
EAU CLAIRE WI  CLOUDY    59  46  62 E12       29.68S
LA CROSSE WI   CLOUDY    62  50  64 E12       29.67S
$$

  *****  SOME NATIONAL WEATHER *****

CITY           SKY/WX    TMP DP  RH WIND       PRES   REMARKS
LA GUARDIA NY  PTSUNNY   66  53  63 VRB3      29.77S
RALEIGH NC     CLOUDY    70  67  90 S6        29.59F
ATLANTA GA     FAIR      73  52  47 W13G25    29.49F
NEW ORLEANS LA FAIR      76  50  40 W14G24    29.69S
OKLAHOMA CITY  FAIR      73  42  32 NW8       29.71F
ALBUQUERQUE NM FAIR      88  17   7 W16G25    29.80F
SALT LAKE CITY CLOUDY    83  38  20 W9        29.59F
LOS ANGELES CA FAIR      64  55  72 W16       29.83F
BOISE ID       FAIR      72  21  14 N21       29.65F
SEATTLE WA     PTSUNNY   61  38  42 NE8       29.97F
$$

*** WEATHER ACROSS MANITOBA...SASKATCHEWAN AND ONTARIO ***
                ***ONTARIO***

CITY           SKY/WX    TMP DP  RH WIND       PRES   REMARKS
GERALDTON      MOSUNNY   64  30  27 E7        29.77F
THUNDER BAY    MOSUNNY   63  28  27 SE7       29.77S
SIOUX LOOKOUT  MOSUNNY   68  28  22 S8        29.72F
TORONTO        CLOUDY    68  46  45 E12G18    29.62F
BIG TROUT LK   SUNNY     66  30  26 SE6       29.72S
PICKLE LAKE    MOSUNNY   68  25  19 S10       29.74S
DRYDEN         SUNNY     68  28  22 S13G18    29.70F
KENORA         MOSUNNY   66  32  28 SW13G21   29.68F
$$
                *** MANITOBA***

CITY           SKY/WX    TMP DP  RH WIND       PRES   REMARKS
BRANDON        PTSUNNY   68  39  34 S29G35    29.45S
DAUPHIN        MOSUNNY   72  36  26 S24G30    29.42F
ISLAND LAKE    MOSUNNY   73  32  21 S9        29.60S
PILOT MOUND      N/A     66  37  34 S31G39      N/A
THE PAS        PTSUNNY   68  37  32 MISG      29.38F
THOMPSON       PTSUNNY   73  27  17 S9G24     29.49R
WINNIPEG       MOSUNNY   70  36  28 S22G31    29.58F
LYNN LAKE      CLOUDY    70  46  43 E9        29.38S
CHURCHILL      PTSUNNY   59  43  55 SW13      29.45R
GILLAM         PTSUNNY   75  36  23 SW17G25   29.51S
$$
                ***SASKATCHEWAN***

CITY           SKY/WX    TMP DP  RH WIND       PRES   REMARKS
ESTEVAN        LGT RAIN  66  43  42 SE16G23   29.30S
KINDERSLEY     CLOUDY    55  45  67 SW24G33   29.13S
LLOYDMINSTER   TSTM      54  54 100 W6        29.11R
PRINCE ALBERT  CLOUDY    61  54  77 E8        29.16F
REGINA         CLOUDY    63  46  55 SE14G22   29.24R
YORKTON          N/A     70  34  26 SE20G33   29.32R
N. BATTLEFORD  MOSUNNY   55  48  76 S5        29.12F
LA RONGE       CLOUDY    48  45  87 NE12      29.32S
SASKATOON      PTSUNNY   64  45  48 SW13      29.14R
SWIFT CURRENT  PTSUNNY   55  32  41 W17G28    29.23R
$$
NOTE: THESE ARE AUTOMATED STATIONS WITH LIMITED QUALITY CONTROL
      "FAIR" INDICATES FEW OR NO CLOUDS BELOW 12,000 FEET WITH NO
      SIGNIFICANT WEATHER AND/OR OBSTRUCTIONS TO VISIBILITY.
      SKY/WX - SKY CONDITION AND SIGNIFICANT WEATHER.
      TMP - AIR TEMPERATURE.    DP   - DEWPOINT TEMPERATURE.
      RH  - RELATIVE HUMIDITY.  PRES - PRESSURE.
      HX  - HEAT INDEX.         WCI  - WIND CHILL INDEX.
$



USA.gov is the U.S. government's official web portal to all federal, state and local government web resources and services.